Wind_Speed
8 8 8 8 7 7 7 7 7 8 8 8 7 7 7 7 7 6 6 5 4 4 5 5 6 6 7 7 8 8 9 9 10 11 11 12 12 12 12 12 13 13 13 14 14 15 15 15 15
9 9 8 8 7 6 6 6 7 7 7 7 7 7 7 7 6 6 6 5 4 4 4 4 5 5 6 7 8 8 9 10 11 11 11 12 12 12 13 13 13 14 15 15 16 16 16 16 16
10 10 9 8 7 7 7 6 7 7 7 7 7 7 6 6 6 5 5 5 4 4 4 4 5 5 6 7 8 8 9 10 11 11 12 12 12 13 13 14 15 15 16 16 17 17 17 18 18
12 11 10 9 8 8 7 7 7 7 7 6 7 6 6 5 5 5 5 5 4 4 5 5 5 6 6 7 7 8 9 10 11 11 12 12 13 14 15 15 16 17 17 17 18 18 19 19 20
15 14 12 11 10 9 8 8 7 7 6 6 6 7 6 5 5 5 5 5 4 4 5 6 7 7 7 8 8 9 9 10 11 12 13 13 14 15 16 17 17 18 18 18 19 20 20 21 21
17 16 15 13 12 11 10 9 8 8 7 7 6 7 7 6 6 5 6 6 5 5 6 7 8 8 9 9 10 10 11 11 12 13 14 15 16 17 18 18 19 19 19 20 20 21 22 22 23
19 18 17 16 14 13 12 11 10 9 8 8 7 7 7 7 6 6 7 7 7 7 7 8 9 10 10 11 11 12 13 13 14 15 16 17 18 19 19 20 20 20 21 21 22 23 23 24 24
22 21 19 17 16 15 14 13 12 11 10 9 8 8 8 8 8 8 8 9 9 9 9 10 11 11 11 12 13 14 14 15 16 17 18 19 20 20 21 21 21 22 22 23 24 24 25 25 26
24 23 21 19 18 17 16 15 14 13 12 11 10 10 10 10 10 9 10 10 11 11 11 12 12 13 13 14 14 15 16 17 18 19 20 20 21 22 22 22 23 23 24 25 25 26 26 27 27
27 25 22 21 20 19 18 17 16 15 14 13 12 11 11 11 11 11 11 12 13 13 14 14 14 15 15 16 17 18 19 19 20 20 21 22 23 23 24 24 24 25 25 26 26 27 27 28 29
29 27 25 24 23 21 21 20 19 17 16 15 14 14 13 13 13 13 13 14 15 15 16 16 17 17 18 18 19 20 21 21 22 22 23 24 24 25 26 26 26 26 27 27 28 28 29 29 30
31 30 29 27 25 24 23 23 21 20 19 19 17 16 16 15 15 16 16 16 16 17 18 18 19 19 20 21 22 22 23 23 24 24 25 25 26 26 27 27 27 28 28 29 29 29 30 30 30
34 32 31 30 29 27 26 25 24 23 22 21 20 19 19 18 18 19 18 18 18 19 19 20 21 21 23 24 24 25 25 26 26 26 27 27 27 27 28 28 29 29 30 30 30 31 31 31 31
35 34 33 32 31 30 29 28 26 25 25 24 23 22 21 21 21 20 20 20 21 21 21 21 22 23 24 25 26 27 27 28 28 28 28 29 29 29 29 30 30 30 31 31 31 32 32 33 33
38 37 35 33 32 32 32 31 29 28 28 27 26 25 24 23 22 22 22 22 22 23 23 23 24 25 26 26 27 28 28 29 29 30 30 30 30 30 30 31 31 32 32 32 32 33 33 34 35
40 39 37 35 34 33 34 32 31 31 30 29 28 27 26 25 24 24 24 24 24 25 25 26 26 27 27 27 28 28 29 30 30 31 30 31 31 31 31 32 32 33 33 33 33 34 34 34 35
41 40 37 36 36 36 36 34 33 32 31 30 29 29 28 28 27 26 26 26 26 27 27 28 28 28 29 29 29 29 30 30 31 31 31 31 31 32 32 32 33 34 34 34 35 35 35 35 35
40 39 38 37 36 37 37 35 34 33 32 31 31 31 30 29 29 28 28 28 29 29 30 30 30 30 30 30 30 30 30 30 31 32 32 32 32 33 33 33 34 34 35 35 36 36 36 36 36
40 40 40 38 38 38 38 37 36 35 34 33 32 32 32 31 31 30 30 30 31 31 31 31 31 31 31 31 30 30 30 31 32 32 33 33 33 33 34 34 35 35 36 36 36 36 37 37 37
41 41 40 39 39 38 38 37 36 35 34 34 33 32 32 32 31 31 32 32 32 32 31 31 31 31 31 31 31 31 31 32 33 33 33 34 34 34 35 36 36 36 37 37 37 37 37 38 37
40 39 38 38 38 39 39 38 37 35 35 34 34 33 33 32 32 32 32 32 32 32 32 31 31 31 31 32 33 33 33 33 34 34 34 34 34 35 36 36 37 37 38 38 38 38 38 38 39
40 38 37 37 38 38 38 38 35 35 35 34 33 33 33 33 32 32 32 32 32 32 31 31 31 32 32 33 33 33 33 34 34 34 34 35 35 36 36 37 37 38 38 39 39 39 39 39 40
39 37 37 37 38 39 38 39 35 34 33 32 33 33 33 32 32 32 31 31 32 32 31 32 32 32 33 33 34 34 34 35 35 35 35 35 36 36 37 37 37 38 39 39 40 40 40 40 41
41 39 39 39 39 40 37 38 37 32 31 31 32 32 32 32 32 31 31 31 31 31 31 32 32 32 33 34 34 34 34 35 35 35 35 36 36 36 37 38 38 38 39 40 40 40 41 41 42
44 42 41 41 42 40 36 38 37 31 30 31 31 31 32 32 32 32 32 32 32 32 32 32 32 32 32 33 33 34 34 35 35 35 35 36 36 36 37 38 38 39 40 40 41 41 41 41 42
44 43 43 42 41 39 38 38 35 32 31 30 30 30 31 30 30 30 31 31 31 31 31 32 32 32 32 32 33 33 34 34 35 35 35 36 36 37 37 38 39 39 40 41 41 41 41 42 44
45 44 42 42 41 41 40 38 35 33 31 29 29 29 29 29 29 29 29 30 30 31 31 31 31 32 32 33 33 33 34 34 34 35 35 36 36 37 38 39 39 40 40 41 41 41 43 44 45
46 44 44 44 43 42 41 38 34 32 30 29 28 28 28 28 28 28 28 29 29 30 31 31 32 32 33 33 33 33 34 34 35 35 35 36 37 38 38 39 40 40 40 41 42 43 44 45 46
46 46 45 44 43 42 41 36 32 30 29 29 28 28 28 27 28 28 29 29 29 30 30 31 31 32 32 32 33 33 34 34 34 35 35 36 37 38 38 39 40 40 41 41 42 43 45 46 47
45 45 44 44 42 40 39 36 32 31 30 29 28 28 28 28 28 29 29 29 29 29 30 30 31 31 31 32 32 33 33 34 34 34 35 36 36 37 38 38 39 40 41 42 43 44 45 46 46
Wind_Direction
202 204 205 204 204 199 192 193 194 201 202 197 192 189 186 185 187 193 198 205 216 233 246 256 264 271 276 280 282 284 289 292 295 296 297 297 298 298 298 298 298 298 298 298 298 297 296 295 294
211 211 210 206 203 197 193 197 199 203 202 194 192 191 189 187 191 197 202 205 212 229 243 258 269 276 280 283 284 285 286 288 290 293 294 295 295 296 295 295 296 296 297 297 297 296 295 294 294
219 218 218 214 210 204 201 203 203 204 198 192 191 192 190 183 189 198 209 212 221 237 250 262 274 281 285 287 288 287 287 287 289 290 292 293 293 294 294 294 295 296 297 297 296 296 295 294 293
224 223 223 222 218 215 213 208 206 204 196 190 193 195 194 185 189 205 218 225 232 248 261 271 279 285 288 288 288 288 287 287 289 290 291 292 292 293 294 294 294 294 295 295 295 295 294 293 292
228 228 228 227 226 225 223 215 211 211 204 200 200 201 202 201 201 212 230 236 242 256 269 276 280 283 285 287 289 288 288 288 289 290 291 291 292 293 294 294 294 293 293 293 292 292 292 292 292
230 231 232 232 233 232 231 225 220 221 218 214 214 216 216 216 214 223 241 252 258 266 275 280 281 283 284 286 286 288 289 291 291 291 291 292 293 294 295 295 294 293 291 291 291 291 292 292 292
232 232 233 235 237 237 233 230 228 229 227 226 227 227 230 233 230 234 247 261 270 276 280 283 285 285 285 286 287 288 290 292 293 292 292 292 294 295 295 295 294 293 292 292 292 292 291 291 291
233 233 233 235 237 237 237 234 234 235 233 232 234 236 239 245 247 246 253 265 274 279 282 283 283 284 284 285 287 288 290 292 293 293 293 293 294 296 295 294 294 293 292 292 292 292 291 291 291
234 234 234 235 236 237 239 238 237 238 240 239 239 243 248 252 255 255 258 264 272 277 280 282 282 283 285 286 287 288 289 291 292 294 294 294 294 295 295 294 293 293 293 293 293 292 292 292 291
235 236 236 237 236 237 239 240 240 242 244 245 245 247 251 256 260 262 264 267 271 275 279 281 281 282 284 285 286 288 289 291 292 293 294 294 294 294 294 294 293 293 293 293 294 293 292 292 291
236 237 236 238 238 238 240 242 243 245 248 249 249 251 254 258 262 265 268 270 272 275 278 281 283 284 285 287 288 288 289 290 291 292 292 293 293 293 293 294 294 294 293 293 293 293 292 292 292
236 237 237 238 239 240 241 243 244 246 249 252 252 254 258 262 264 267 270 271 272 274 277 280 282 284 286 287 287 287 288 288 289 290 291 292 293 293 293 293 294 293 293 293 293 293 293 292 292
235 236 238 238 240 241 242 244 246 248 249 252 254 256 259 263 266 269 271 274 275 275 277 279 281 283 285 286 286 286 287 288 288 289 291 291 292 292 292 292 292 293 293 293 294 293 292 292 291
235 236 237 239 240 242 244 245 246 249 251 252 255 258 261 264 267 269 272 275 277 278 279 280 281 281 282 284 285 285 286 287 287 288 290 291 291 291 291 291 292 292 293 293 293 293 292 291 291
235 236 237 238 241 242 244 245 246 248 251 254 256 259 261 264 267 270 272 275 278 280 281 282 282 281 282 283 283 284 285 286 287 287 289 289 290 290 290 291 291 292 293 292 292 292 292 291 291
235 236 237 238 241 242 245 246 247 249 251 254 257 259 261 264 267 269 272 274 276 278 281 282 283 282 282 282 283 283 284 285 286 287 288 288 289 289 289 290 291 292 292 292 292 292 292 292 292
235 237 237 238 240 242 245 246 247 249 251 254 256 259 262 264 267 269 271 273 275 277 279 281 282 282 282 283 283 283 284 284 285 286 287 288 288 288 289 289 290 291 291 291 291 292 292 292 292
236 238 238 238 239 242 244 246 248 249 250 252 256 259 262 264 267 269 270 272 274 276 277 278 280 281 282 283 283 283 284 284 284 285 286 287 287 288 288 289 290 290 290 290 291 291 292 292 293
236 237 238 238 240 242 244 246 248 250 251 253 256 259 262 264 266 268 270 272 273 275 276 277 279 280 281 282 283 283 283 284 285 285 285 286 286 286 287 288 289 289 289 290 290 291 291 292 292
236 237 238 239 241 243 244 245 247 249 252 254 256 259 261 263 265 267 269 271 273 275 275 277 278 279 280 281 282 282 283 284 285 285 285 286 286 286 286 287 288 288 288 289 289 291 291 292 292
236 238 239 241 242 244 245 245 246 249 251 253 256 259 261 263 265 267 269 272 273 274 275 277 278 278 279 280 281 282 283 284 284 285 285 285 285 286 286 287 287 287 287 288 289 290 291 291 292
236 238 240 241 242 244 246 247 245 248 250 253 256 259 261 264 266 267 269 271 272 273 275 276 277 278 279 281 282 283 284 284 284 284 284 284 285 285 285 286 286 287 287 288 288 289 290 291 292
236 237 240 242 244 244 245 249 244 247 251 254 257 260 263 265 266 267 269 271 272 274 275 276 277 279 280 281 282 283 283 283 284 284 284 284 284 284 284 285 286 286 287 288 289 289 290 291 292
234 235 238 241 243 244 245 250 247 247 252 254 257 260 263 265 266 268 269 271 273 274 275 277 278 279 280 280 281 282 282 282 283 283 283 284 284 284 284 284 285 286 287 288 289 290 291 292 292
231 233 236 239 241 245 246 249 251 249 251 254 257 260 262 264 266 268 270 272 273 275 277 278 279 280 280 280 281 281 281 281 282 282 282 283 283 284 284 284 286 287 288 289 290 291 291 292 293
232 234 237 241 244 247 248 249 252 252 253 255 258 260 262 264 266 268 270 272 274 276 277 278 279 279 279 279 280 280 281 281 281 282 282 283 283 283 284 285 286 287 288 290 291 291 292 293 294
231 233 236 240 244 246 248 249 251 253 256 257 258 260 262 264 266 268 271 273 275 277 278 279 279 279 279 279 280 280 280 281 281 281 282 282 283 283 284 285 286 287 289 290 291 292 293 294 295
231 232 234 237 242 246 248 250 251 254 257 258 258 260 263 265 267 270 272 274 275 276 278 279 279 279 280 280 279 279 279 280 280 281 282 282 283 283 284 285 286 287 289 290 291 292 294 295 296
231 231 233 237 242 246 249 250 253 255 257 259 260 261 263 266 267 270 272 274 276 277 278 279 280 280 280 280 280 279 279 280 281 282 282 282 283 283 284 285 287 288 289 291 292 293 294 295 297
233 234 236 238 242 246 249 251 254 256 257 260 261 263 264 265 267 270 273 275 276 278 279 280 281 281 280 280 280 280 280 281 282 282 282 283 283 284 285 286 287 288 290 291 293 294 296 296 297
Height
5868 5868 5869 5870 5871 5872 5872 5873 5873 5873 5874 5875 5876 5877 5878 5879 5881 5883 5882 5881 5882 5882 5882 5882 5883 5883 5883 5883 5883 5883 5883 5882 5882 5882 5881 5881 5880 5879 5878 5878 5877 5876 5875 5874 5873 5872 5871 5870 5869
5867 5867 5869 5869 5870 5871 5872 5872 5872 5873 5873 5874 5875 5876 5877 5878 5879 5879 5879 5880 5881 5881 5881 5881 5882 5882 5882 5882 5881 5881 5881 5881 5880 5880 5879 5879 5878 5877 5876 5876 5875 5874 5873 5872 5871 5870 5869 5868 5867
5865 5866 5868 5868 5869 5870 5871 5871 5871 5872 5873 5874 5874 5875 5876 5877 5877 5878 5878 5879 5880 5880 5880 5880 5880 5880 5880 5880 5880 5880 5879 5879 5879 5878 5878 5877 5876 5875 5874 5873 5872 5871 5870 5869 5868 5867 5866 5865 5863
5864 5865 5867 5868 5868 5869 5870 5870 5870 5871 5872 5873 5874 5874 5875 5876 5877 5877 5877 5877 5878 5879 5879 5879 5879 5879 5879 5879 5878 5878 5878 5877 5877 5876 5876 5875 5874 5873 5872 5871 5870 5869 5867 5866 5865 5864 5862 5861 5860
5861 5863 5864 5865 5866 5867 5868 5869 5869 5870 5871 5872 5873 5873 5874 5875 5876 5876 5876 5876 5877 5877 5877 5877 5877 5877 5877 5877 5877 5876 5876 5876 5875 5874 5874 5873 5872 5871 5870 5868 5867 5866 5864 5863 5862 5860 5859 5858 5856
5859 5860 5862 5863 5864 5865 5866 5867 5868 5869 5870 5871 5871 5872 5873 5874 5875 5875 5874 5875 5875 5876 5876 5876 5876 5876 5875 5875 5875 5874 5874 5873 5873 5872 5871 5870 5869 5868 5867 5865 5864 5863 5861 5860 5858 5857 5855 5854 5852
5856 5857 5858 5860 5861 5863 5864 5865 5866 5867 5868 5869 5870 5870 5871 5872 5873 5874 5873 5873 5873 5874 5874 5874 5874 5874 5873 5873 5873 5872 5872 5871 5870 5870 5868 5867 5866 5865 5864 5862 5860 5859 5857 5856 5854 5853 5851 5850 5848
5852 5854 5855 5857 5858 5860 5861 5862 5863 5865 5866 5867 5868 5868 5869 5870 5871 5872 5872 5872 5871 5872 5872 5872 5872 5871 5871 5871 5870 5869 5869 5868 5867 5866 5865 5864 5863 5861 5860 5858 5857 5855 5853 5852 5850 5848 5847 5845 5843
5847 5851 5852 5854 5855 5857 5858 5859 5861 5862 5863 5864 5865 5866 5867 5867 5868 5869 5870 5870 5870 5869 5869 5869 5869 5869 5868 5868 5867 5866 5866 5865 5864 5863 5861 5860 5859 5857 5856 5854 5852 5851 5849 5847 5845 5844 5842 5840 5838
5843 5846 5848 5850 5851 5853 5854 5856 5857 5859 5860 5861 5862 5863 5864 5864 5865 5866 5867 5867 5867 5867 5867 5866 5866 5866 5865 5865 5864 5863 5862 5861 5860 5859 5857 5856 5855 5853 5851 5850 5848 5846 5844 5842 5840 5838 5837 5835 5832
5838 5841 5843 5845 5847 5849 5850 5852 5854 5855 5857 5858 5859 5860 5860 5861 5862 5863 5863 5864 5864 5864 5863 5863 5862 5862 5861 5861 5860 5859 5858 5857 5856 5854 5853 5852 5850 5848 5846 5845 5843 5841 5839 5837 5835 5833 5831 5829 5826
5832 5835 5837 5840 5841 5844 5846 5848 5849 5851 5853 5853 5855 5856 5856 5857 5858 5859 5859 5860 5860 5860 5859 5859 5858 5858 5857 5856 5856 5855 5853 5852 5851 5850 5848 5847 5845 5843 5841 5839 5837 5835 5833 5831 5829 5827 5825 5823 5820
5825 5829 5832 5834 5836 5838 5840 5843 5845 5846 5847 5848 5850 5851 5852 5853 5853 5854 5854 5855 5855 5855 5855 5855 5854 5853 5852 5851 5851 5850 5848 5847 5846 5845 5843 5841 5840 5838 5836 5834 5832 5830 5828 5825 5823 5821 5819 5816 5814
5819 5822 5825 5828 5830 5832 5835 5837 5839 5841 5842 5844 5845 5846 5848 5848 5849 5849 5849 5850 5849 5850 5850 5850 5849 5849 5848 5847 5845 5844 5843 5842 5840 5839 5837 5836 5834 5832 5830 5828 5826 5824 5822 5819 5817 5815 5812 5810 5807
5811 5815 5818 5822 5824 5826 5828 5831 5834 5835 5836 5838 5839 5841 5842 5843 5843 5844 5844 5844 5844 5844 5844 5844 5844 5843 5842 5841 5840 5839 5837 5835 5834 5833 5831 5830 5828 5826 5824 5822 5820 5817 5815 5813 5811 5808 5806 5803 5801
5804 5807 5812 5816 5818 5820 5823 5826 5828 5829 5831 5832 5833 5835 5836 5837 5838 5839 5839 5839 5839 5839 5838 5838 5838 5837 5836 5835 5834 5832 5831 5829 5828 5826 5825 5823 5821 5819 5817 5815 5813 5811 5808 5806 5804 5801 5799 5796 5793
5795 5800 5805 5809 5811 5813 5815 5818 5821 5822 5824 5826 5827 5829 5830 5831 5832 5833 5833 5833 5833 5833 5832 5832 5831 5830 5829 5828 5827 5826 5824 5823 5821 5819 5818 5816 5814 5812 5810 5808 5806 5804 5801 5799 5797 5794 5791 5789 5786
5790 5794 5797 5800 5803 5805 5807 5811 5813 5815 5817 5819 5821 5822 5824 5825 5826 5826 5827 5827 5827 5827 5826 5825 5824 5823 5822 5821 5820 5819 5817 5816 5814 5812 5811 5809 5807 5805 5803 5801 5799 5796 5794 5792 5789 5787 5784 5781 5779
5781 5784 5788 5792 5795 5797 5800 5803 5806 5808 5810 5812 5814 5816 5817 5818 5819 5819 5820 5820 5820 5820 5819 5818 5817 5816 5815 5814 5813 5811 5810 5808 5807 5805 5803 5801 5799 5797 5795 5793 5791 5789 5786 5784 5781 5779 5776 5774 5771
5771 5775 5780 5784 5786 5789 5792 5795 5798 5800 5803 5805 5807 5809 5810 5811 5812 5812 5812 5812 5812 5812 5811 5811 5810 5809 5807 5806 5805 5804 5803 5801 5800 5798 5796 5794 5792 5790 5788 5786 5783 5781 5779 5776 5773 5771 5768 5766 5763
5763 5768 5773 5776 5778 5780 5783 5787 5790 5793 5795 5797 5799 5801 5802 5803 5804 5804 5805 5805 5805 5804 5804 5803 5802 5801 5800 5799 5798 5797 5795 5793 5792 5790 5788 5786 5784 5782 5780 5777 5775 5773 5770 5768 5765 5763 5760 5757 5754
5756 5762 5764 5767 5769 5772 5775 5777 5783 5785 5787 5790 5792 5793 5794 5795 5796 5796 5797 5797 5797 5796 5796 5795 5794 5793 5792 5791 5790 5789 5787 5786 5784 5782 5780 5778 5776 5774 5771 5769 5767 5764 5762 5759 5757 5754 5751 5748 5745
5749 5753 5756 5758 5760 5763 5766 5768 5775 5778 5780 5783 5784 5785 5786 5787 5788 5788 5789 5789 5788 5788 5788 5787 5786 5785 5784 5783 5782 5781 5779 5778 5776 5774 5772 5770 5768 5766 5763 5761 5758 5756 5753 5751 5748 5745 5742 5739 5736
5739 5743 5746 5748 5750 5754 5759 5760 5765 5771 5774 5775 5776 5777 5778 5779 5780 5781 5781 5780 5780 5780 5779 5779 5778 5777 5776 5775 5774 5772 5771 5769 5767 5765 5763 5761 5759 5757 5755 5752 5750 5747 5745 5742 5739 5736 5733 5730 5727
5729 5734 5737 5738 5741 5746 5751 5751 5757 5764 5766 5767 5768 5769 5770 5771 5772 5772 5772 5772 5772 5772 5771 5770 5770 5769 5768 5766 5765 5764 5762 5761 5759 5757 5755 5753 5751 5748 5746 5743 5741 5738 5736 5733 5730 5727 5724 5721 5717
5721 5725 5730 5733 5735 5739 5741 5743 5751 5755 5757 5759 5760 5761 5762 5763 5764 5764 5764 5764 5764 5763 5763 5762 5761 5760 5759 5758 5757 5755 5754 5752 5750 5748 5746 5744 5742 5739 5737 5735 5732 5730 5727 5724 5721 5718 5715 5711 5707
5711 5715 5721 5725 5726 5729 5731 5737 5742 5746 5749 5751 5752 5753 5754 5755 5756 5756 5756 5756 5756 5755 5754 5753 5753 5752 5751 5749 5748 5747 5745 5743 5741 5739 5737 5735 5733 5730 5728 5726 5723 5721 5718 5715 5712 5708 5705 5701 5697
5702 5707 5710 5714 5716 5719 5723 5728 5735 5738 5740 5743 5745 5746 5746 5747 5747 5748 5748 5748 5747 5747 5746 5745 5744 5743 5742 5741 5739 5738 5736 5734 5732 5730 5728 5726 5724 5721 5719 5717 5714 5711 5708 5705 5702 5699 5695 5691 5687
5692 5696 5700 5705 5708 5712 5715 5723 5728 5730 5732 5734 5736 5737 5738 5739 5739 5740 5740 5740 5739 5738 5738 5737 5736 5734 5733 5732 5730 5729 5727 5725 5723 5721 5719 5717 5715 5712 5710 5707 5705 5702 5699 5696 5692 5689 5685 5681 5676
5683 5688 5693 5697 5701 5705 5708 5716 5719 5722 5724 5726 5727 5729 5730 5731 5731 5731 5731 5731 5731 5730 5729 5728 5727 5725 5724 5723 5721 5720 5718 5716 5714 5712 5710 5708 5705 5703 5700 5698 5695 5692 5689 5686 5682 5678 5674 5670 5665